Wind_Speed
14 17 17 16 14 13 12 11 11 12 13 12 11 10 9 8 7 7 6 6 6 6 7 8 10 11 12 14 15 16 17 17 17 17 17 18 18 17 15 12 11 10 9 8 7 7 8 8 8 8 8 8 9 9 10 10 10 11 12 13 14 14 15 15 16 17 19 20 20 21 21 20 21 21 21 22 22 21 21 20 20 20 19 18 18
14 16 17 17 15 14 12 12 12 12 13 12 11 10 9 7 6 5 4 4 4 4 5 7 8 9 11 12 14 15 16 16 16 17 17 17 17 17 15 12 11 10 9 7 6 6 7 6 6 7 7 7 9 9 10 11 11 12 13 13 15 15 16 16 17 19 20 21 22 22 22 21 21 22 22 22 22 21 21 20 19 19 18 18 18
14 16 16 17 16 14 13 13 12 13 13 12 11 10 9 7 6 4 3 2 2 3 4 5 6 8 9 11 12 14 14 15 16 16 16 16 17 17 15 12 11 11 9 8 7 6 6 5 5 6 6 7 8 10 11 11 12 12 13 14 15 16 17 18 19 20 21 22 22 23 22 22 22 22 22 21 21 20 20 19 18 18 17 17 17
16 18 16 17 16 15 14 14 13 13 13 13 11 10 9 7 6 4 2 1 0 1 2 3 5 6 7 9 11 12 13 14 15 15 15 15 16 16 15 13 11 11 10 9 8 8 7 7 7 6 7 7 8 10 11 12 12 13 14 15 16 17 19 20 21 21 22 23 23 23 23 22 21 21 21 20 20 19 19 18 17 17 17 17 16
16 19 17 16 16 16 15 14 14 13 14 13 12 11 9 7 6 4 3 2 2 1 1 2 3 4 6 7 9 10 12 13 14 14 14 14 15 15 14 13 11 11 10 9 9 9 9 9 8 7 7 8 9 10 12 13 13 14 15 16 18 19 21 22 22 22 22 23 23 23 22 21 20 20 19 19 18 18 17 17 17 16 16 16 15
16 19 17 16 16 16 15 14 14 13 14 13 12 11 10 8 6 5 4 4 3 3 2 1 2 3 4 5 7 8 10 11 12 13 13 13 14 14 14 13 12 11 11 10 9 9 9 9 8 7 7 8 10 11 12 13 14 15 17 19 20 21 22 22 22 23 23 22 22 22 21 20 19 18 18 18 17 17 16 16 15 15 14 14 13
17 19 18 17 16 16 15 15 14 14 14 13 12 11 10 8 7 6 5 5 5 4 3 2 1 2 3 4 5 7 8 9 11 11 12 12 12 13 14 13 13 12 11 11 10 10 10 9 8 7 8 9 11 12 13 13 15 17 19 21 22 23 23 23 23 22 22 21 21 20 19 18 18 17 16 16 16 15 14 14 13 13 12 12 11
17 20 19 18 17 16 16 15 15 15 14 13 12 11 10 9 8 7 6 6 6 5 4 3 1 1 1 2 3 5 6 7 9 10 11 11 11 12 13 12 12 12 12 11 11 11 11 10 9 9 9 10 11 12 14 15 18 20 22 23 23 24 24 23 22 21 21 20 19 18 18 17 16 15 14 14 14 13 12 12 11 11 10 10 10
18 20 20 19 18 18 17 16 15 15 14 13 12 11 10 9 8 7 7 7 6 6 5 4 2 1 0 1 2 3 5 6 7 9 10 10 10 12 12 12 12 12 11 11 11 11 11 12 12 11 11 11 12 14 16 18 21 22 22 23 23 24 23 23 21 20 20 19 17 16 15 15 14 13 12 12 11 11 10 10 10 10 9 9 9
17 20 21 21 20 19 17 16 16 15 15 13 12 11 10 9 8 8 7 7 7 6 5 4 3 2 1 0 1 2 3 4 5 7 8 9 9 10 11 11 12 11 11 11 10 11 12 12 13 13 13 13 14 16 18 20 21 22 22 22 23 23 22 22 20 19 18 17 15 14 13 13 12 11 11 10 10 10 9 10 10 10 10 10 9
16 19 22 22 21 20 18 17 16 15 15 14 12 11 10 9 8 8 7 7 7 6 6 5 4 3 2 1 1 0 2 3 4 5 6 8 8 9 10 10 11 11 10 10 10 11 12 13 14 15 15 15 16 18 19 20 21 21 21 21 21 20 20 19 18 18 16 15 14 12 11 11 11 10 10 10 10 10 10 10 10 10 10 10 10
16 20 22 23 22 21 19 18 17 16 14 13 12 11 10 9 8 8 7 7 7 6 6 6 5 4 3 2 2 1 1 1 2 3 5 7 7 8 8 9 10 10 10 10 10 10 11 12 13 15 15 16 16 17 18 19 19 19 19 18 18 17 17 16 16 15 14 13 11 11 10 9 9 10 10 10 10 10 11 11 11 11 10 10 10
16 18 21 23 22 20 19 18 17 16 14 12 11 10 9 9 9 8 7 7 7 7 6 6 5 4 4 3 2 2 1 1 1 1 3 5 6 6 7 8 8 9 9 9 10 10 11 11 13 14 15 15 15 16 16 17 17 17 17 16 15 14 14 13 13 13 11 10 9 9 9 8 9 9 10 11 11 12 12 12 12 12 12 12 12
14 16 20 22 21 20 19 18 17 15 13 12 11 10 10 9 9 8 8 7 7 7 6 6 6 5 4 4 3 2 2 1 1 1 2 4 5 5 6 7 7 8 9 9 9 10 10 11 12 14 14 14 14 14 15 15 16 16 14 13 12 12 12 11 11 10 9 8 7 7 7 7 8 9 10 11 12 13 13 14 14 13 13 13 14
14 16 18 20 20 19 18 18 17 15 13 12 11 11 10 10 9 8 8 7 7 6 6 6 6 5 5 4 4 3 2 2 2 2 1 3 4 4 5 5 6 7 7 8 8 9 10 10 11 13 13 13 12 13 13 13 13 13 12 11 10 10 9 9 9 7 7 6 5 5 4 6 7 8 10 11 12 14 15 15 15 15 15 15 15
16 17 18 19 19 18 18 17 15 14 13 12 12 12 11 10 9 8 8 7 7 6 6 6 6 5 5 5 4 3 3 3 3 2 2 2 3 4 4 5 5 6 6 7 8 8 9 9 10 11 12 12 12 11 11 11 11 11 10 9 8 8 7 6 6 5 4 3 3 3 4 6 7 9 10 11 13 14 16 16 17 17 17 16 16
17 18 19 20 19 18 16 15 14 13 13 12 12 12 12 11 10 9 8 8 7 6 6 6 6 5 5 5 4 4 4 4 4 3 3 2 2 3 4 4 4 4 5 6 7 8 8 8 9 10 11 11 11 11 10 10 10 9 8 7 6 6 5 4 4 3 2 1 2 3 4 6 8 10 11 12 14 15 16 17 18 19 19 18 16
18 18 19 19 18 16 15 14 14 13 13 13 13 13 12 11 10 9 8 7 7 7 6 6 6 5 5 5 5 5 4 4 4 4 3 3 3 3 3 3 3 3 4 4 6 7 8 7 8 9 10 10 10 10 9 9 8 8 7 6 6 5 4 3 2 2 0 1 2 3 5 7 9 10 12 13 14 16 17 18 19 19 19 18 17
18 18 19 18 16 15 15 15 14 13 13 13 13 13 12 11 10 9 8 8 7 7 6 6 6 5 5 5 5 5 5 5 4 4 4 4 3 3 3 3 3 3 3 3 4 6 7 7 7 8 9 9 9 9 8 8 8 7 7 6 6 5 4 4 3 2 2 3 4 5 7 9 10 12 13 14 16 17 18 19 20 20 20 19 17
17 18 18 16 16 16 16 16 15 14 14 14 14 14 12 11 10 9 8 8 8 7 6 6 6 6 5 6 6 6 5 5 5 5 5 5 4 4 4 4 4 3 3 2 2 4 6 7 7 7 8 9 9 9 8 8 8 7 7 7 6 6 6 5 5 4 5 5 6 8 9 10 12 13 14 16 17 18 20 21 21 21 21 20 18
16 16 16 16 17 17 17 17 17 16 16 15 15 14 13 11 10 10 9 9 8 7 7 7 7 6 6 6 6 6 6 6 6 6 6 6 5 4 4 4 4 4 4 3 3 3 4 6 7 7 7 8 9 10 10 9 9 8 8 8 7 7 7 7 7 7 7 8 8 9 10 11 13 14 15 17 18 20 21 22 21 21 21 20 19
15 16 17 18 18 18 18 18 17 17 17 16 15 14 13 12 12 11 10 10 8 8 8 8 7 7 7 7 6 7 7 7 7 6 6 6 5 5 5 5 5 5 4 4 4 3 4 5 7 8 8 8 9 10 10 11 10 10 10 9 8 9 9 8 9 9 9 10 10 11 12 13 14 15 16 18 19 20 21 22 22 22 21 20 19
15 16 18 19 18 18 18 18 18 18 17 16 15 15 14 13 13 12 11 10 10 9 9 9 8 8 7 7 7 7 7 8 7 7 6 6 6 6 6 6 6 6 6 5 5 5 5 6 6 8 9 9 10 10 10 11 11 11 11 10 11 11 10 11 11 11 12 12 12 13 14 15 15 16 17 18 19 20 21 21 22 22 21 20 19
15 16 17 18 17 17 17 18 18 17 17 16 16 15 15 14 14 13 12 11 10 10 10 10 9 8 8 8 8 8 8 8 8 7 7 6 7 6 7 7 7 7 7 7 7 7 7 7 8 8 9 10 11 11 11 11 12 12 12 12 12 12 12 13 13 13 14 14 15 15 16 16 17 17 18 18 19 20 21 21 21 21 20 19 18
15 15 15 15 15 16 17 17 17 17 16 16 16 15 15 14 14 13 12 11 11 11 10 9 9 8 8 8 8 8 8 9 9 8 7 7 7 7 7 7 7 7 7 8 9 9 9 9 9 9 9 10 11 11 12 12 13 13 13 13 13 14 14 15 15 15 15 16 16 17 17 18 18 18 18 19 19 19 20 20 20 20 19 18 18
14 15 15 15 15 16 16 16 16 15 15 15 15 15 14 14 13 12 12 11 11 10 10 9 8 8 8 8 8 8 8 8 8 8 8 8 8 8 8 8 8 8 8 9 9 10 11 11 11 11 11 11 12 12 13 14 14 14 14 15 15 15 16 16 16 16 17 17 18 18 18 19 19 19 19 19 19 19 19 19 19 19 18 17 17
14 15 15 16 16 15 15 15 15 14 14 14 14 14 14 13 12 12 11 10 10 10 9 9 8 8 8 8 7 7 8 8 8 8 9 9 8 9 9 9 9 9 10 10 11 12 12 13 13 13 13 13 14 14 15 15 16 15 16 16 16 17 17 18 18 18 19 19 18 19 19 20 20 20 20 20 19 19 19 19 19 19 18 16 16
15 16 16 16 15 15 15 14 14 14 14 14 14 14 13 12 11 11 10 10 9 9 9 9 8 8 7 7 7 7 7 8 8 8 8 8 8 9 10 11 11 12 12 12 13 13 14 14 14 15 15 15 15 16 16 17 17 17 17 17 17 18 19 20 19 19 20 20 19 19 20 20 20 20 20 20 20 19 19 19 19 19 18 16 15
15 15 15 14 14 14 14 14 13 13 14 14 13 13 12 11 11 10 10 10 9 9 9 9 8 8 8 8 7 7 8 8 8 8 8 8 8 9 10 11 12 13 13 13 14 14 15 16 16 17 17 17 17 17 17 18 19 19 19 19 19 20 20 21 21 21 21 21 20 20 20 20 21 21 21 21 20 20 19 19 19 19 18 16 14
14 14 13 12 13 13 13 13 13 13 13 13 13 12 12 10 10 10 10 11 10 10 9 9 8 8 8 8 8 8 8 8 8 8 9 9 9 9 10 11 12 13 14 14 14 15 16 17 18 18 19 19 19 19 19 20 21 21 21 21 21 21 21 21 21 22 23 23 22 22 21 21 21 22 22 22 21 20 19 19 18 19 19 16 13
14 13 12 12 12 13 12 12 12 12 12 12 12 11 11 10 10 11 11 11 11 10 9 9 9 9 9 8 8 7 7 8 8 8 9 9 9 9 10 10 11 12 13 14 14 15 15 16 17 18 19 20 20 20 20 21 22 23 23 23 23 22 22 22 22 22 23 24 24 23 23 23 23 22 23 23 22 21 21 20 19 19 19 17 14
14 13 12 12 12 12 11 12 12 11 11 11 11 10 10 10 10 11 11 11 10 10 10 9 9 8 8 8 7 7 7 7 7 7 7 8 8 9 9 10 10 11 12 12 12 13 14 14 15 16 18 19 20 20 20 22 23 24 24 24 24 24 24 23 23 23 24 25 25 25 24 24 24 23 24 23 23 22 21 21 20 19 19 18 16
13 12 12 12 12 12 11 12 12 11 11 11 10 10 11 11 11 11 11 10 10 10 9 8 8 8 8 7 7 6 6 7 7 7 6 7 7 7 8 8 9 10 11 10 10 11 11 12 13 14 16 17 18 19 19 20 22 24 24 25 26 26 26 25 26 26 25 26 27 27 26 25 24 24 24 24 24 23 22 21 21 20 19 19 17
13 12 13 12 12 12 13 13 13 12 12 11 11 11 11 11 11 11 10 9 9 9 8 8 8 8 7 7 6 6 6 6 6 5 5 5 5 5 6 7 8 9 10 11 10 11 11 12 12 13 14 15 16 17 18 19 20 22 23 24 25 25 26 26 26 26 26 26 27 28 28 26 25 24 23 23 23 22 21 21 20 20 19 18 18
14 13 13 13 12 12 14 14 13 13 12 12 12 11 11 11 11 10 9 8 8 8 8 8 8 7 7 6 5 5 5 4 4 4 4 4 4 5 5 6 7 9 10 11 11 11 12 13 13 13 14 14 15 16 16 17 18 19 20 21 22 23 24 25 26 26 26 26 26 26 26 26 27 26 24 23 23 22 21 21 20 20 20 19 18
15 15 14 13 13 14 14 15 14 13 12 12 12 12 11 12 11 10 9 8 8 8 8 7 7 6 6 5 4 3 3 3 3 4 4 4 4 5 6 6 7 8 10 10 11 12 13 14 14 14 14 15 15 15 16 16 16 17 17 18 19 20 21 23 24 25 25 25 25 25 24 25 26 27 27 27 26 23 22 22 21 21 20 20 19
17 16 15 14 14 15 15 15 14 13 12 12 12 12 12 11 10 9 8 8 8 8 7 6 5 5 4 3 2 2 2 3 3 4 5 5 6 6 7 8 9 9 10 11 11 12 13 14 14 14 14 15 15 16 16 16 16 16 17 17 18 19 19 20 21 22 23 23 23 24 23 23 23 24 25 27 29 27 25 24 23 22 21 21 20
19 18 16 15 14 15 16 15 14 13 12 13 12 12 11 10 9 8 8 8 7 6 5 5 4 3 3 2 2 2 3 3 5 5 6 6 7 7 8 9 10 11 12 13 13 14 14 14 14 14 14 15 15 16 17 17 17 17 18 18 18 18 19 20 20 21 21 21 21 22 22 22 21 21 23 24 27 28 29 26 25 24 22 21 21
19 19 17 15 15 15 15 15 14 14 13 13 12 11 10 9 9 8 8 7 6 5 5 4 4 3 2 2 3 3 4 5 6 6 7 8 9 9 9 11 12 13 14 15 15 16 16 16 15 14 14 14 15 16 17 18 18 18 18 19 19 19 18 19 19 19 20 20 20 21 21 21 21 22 23 23 24 26 28 28 27 26 24 22 22
16 15 16 16 16 14 14 15 15 15 14 13 12 11 10 10 9 8 7 6 5 5 5 4 4 4 3 3 4 4 5 6 7 7 9 10 11 12 12 13 14 15 16 16 16 17 17 16 15 14 14 14 14 15 16 18 18 19 18 18 19 19 19 19 19 19 19 20 20 21 21 21 21 22 23 23 23 24 26 27 27 27 25 23 23
12 13 15 15 15 14 14 16 16 15 15 14 13 12 11 10 9 7 6 6 5 5 5 5 5 5 5 5 5 6 6 7 8 9 10 11 12 13 14 15 16 16 17 17 18 18 17 16 15 15 15 15 15 15 16 17 18 19 18 18 19 19 18 18 18 19 20 20 21 21 22 22 22 22 22 22 23 23 24 25 26 27 25 23 23
12 12 13 13 13 14 15 16 16 16 15 14 13 12 11 9 8 7 6 6 6 6 6 6 6 6 6 7 7 7 8 9 10 11 12 13 13 13 15 16 17 17 18 18 18 17 16 16 15 16 16 16 17 17 16 16 16 17 18 19 19 18 18 17 17 18 18 19 21 21 22 23 22 22 22 22 21 22 22 23 25 25 23 22 23
13 13 12 13 14 15 16 16 16 16 15 14 12 11 10 8 7 7 6 6 6 6 6 7 7 7 8 9 10 10 10 10 11 12 13 14 14 15 16 17 18 18 19 19 18 16 15 15 15 16 16 16 17 17 17 16 15 16 17 18 18 18 19 18 17 17 16 18 20 21 22 23 23 24 23 22 20 21 20 22 24 23 21 22 24
13 13 14 15 15 15 16 16 16 15 13 13 11 10 9 9 8 7 7 7 7 7 8 9 9 9 10 11 11 12 12 12 12 12 14 15 15 17 18 18 18 18 18 18 15 14 15 15 15 15 15 15 15 16 16 16 15 15 16 17 17 17 17 18 19 19 18 18 20 20 21 22 23 24 24 22 20 20 19 19 22 23 23 24 24
14 15 16 17 16 16 15 15 14 13 12 12 11 11 10 10 10 9 8 8 8 9 10 10 10 10 11 11 12 12 12 12 12 14 15 16 17 17 18 18 18 18 18 16 14 13 14 14 14 15 14 15 15 15 15 16 16 16 15 15 16 17 16 17 19 19 19 20 21 21 22 22 22 23 23 22 21 20 19 18 20 23 25 26 25
14 15 16 17 17 16 15 14 13 13 13 13 12 12 12 11 11 10 9 9 9 9 9 9 9 10 10 10 11 11 11 12 14 15 16 17 17 17 18 18 18 17 16 15 14 12 12 12 13 14 14 14 15 15 15 16 16 16 15 15 16 17 18 18 18 19 19 21 23 24 24 24 23 23 22 21 21 21 21 21 20 21 24 27 26
15 15 17 17 17 16 16 15 14 14 15 14 14 13 12 11 10 9 9 9 9 9 9 9 9 10 10 10 11 12 12 13 14 15 16 16 16 15 15 15 15 14 14 14 14 13 11 11 12 12 13 13 14 15 16 17 17 16 16 15 15 17 18 19 19 21 22 21 23 26 27 26 23 22 22 22 21 21 22 22 22 21 22 25 26
15 16 17 17 17 17 17 16 16 16 16 15 14 13 11 10 9 9 9 9 9 9 9 9 10 10 11 11 12 13 14 15 15 16 16 16 15 14 13 12 12 12 12 13 13 13 12 12 12 13 13 13 14 15 16 17 17 17 17 17 17 17 17 18 19 22 23 21 22 24 24 25 23 21 20 21 21 22 22 22 23 23 23 24 26
16 17 17 18 17 17 17 17 16 16 16 15 13 12 11 10 9 9 10 10 10 10 10 10 11 11 11 12 13 14 15 16 16 16 16 15 15 13 12 11 11 12 12 13 13 13 12 12 13 13 14 14 15 15 16 17 18 18 18 19 19 19 19 18 18 20 21 22 23 23 22 22 23 22 21 21 21 21 22 23 23 24 23 24 25
17 18 18 18 18 18 17 17 17 16 16 15 14 13 12 10 10 10 11 11 11 11 11 11 11 11 12 13 14 15 16 16 16 15 15 14 13 12 11 11 11 12 13 14 14 13 13 13 13 14 14 15 16 16 17 18 19 20 20 20 21 21 20 19 19 19 20 22 23 22 22 23 22 21 21 21 20 21 22 23 23 23 23 24 24
18 18 19 19 19 19 19 18 17 17 16 15 15 14 13 12 11 11 12 12 12 12 12 12 12 13 13 14 15 16 17 17 16 15 14 13 12 12 12 12 12 13 14 15 15 15 15 15 15 15 15 16 17 18 19 19 20 21 21 22 22 22 22 21 20 20 22 23 23 22 23 24 23 21 20 20 21 21 22 23 24 23 23 23 24
Wind_Direction
193 183 174 169 168 162 156 152 147 141 140 139 136 131 124 115 101 83 68 54 42 34 30 30 34 41 47 51 52 51 50 50 50 51 51 49 50 49 49 48 50 55 53 47 43 45 47 51 56 60 63 65 57 53 59 67 75 80 85 89 93 96 97 98 99 99 99 99 98 97 94 93 92 91 90 89 88 86 85 83 82 81 79 77 76
200 185 175 170 170 166 161 158 154 149 148 147 145 141 136 129 116 96 79 62 43 31 25 24 30 37 46 51 53 54 52 52 51 51 52 51 51 50 51 51 50 52 51 47 46 47 49 55 58 62 67 68 62 61 68 74 81 85 89 92 95 98 98 98 99 100 100 100 98 96 93 92 90 89 88 87 86 85 83 82 80 79 77 75 73
198 189 179 171 172 169 167 164 161 157 154 154 153 152 148 141 131 117 103 78 42 22 17 18 26 34 43 51 55 57 55 54 53 52 53 53 53 52 54 53 52 54 52 49 53 58 60 63 63 69 75 72 67 69 76 80 85 90 93 95 97 99 100 100 101 101 100 98 96 95 92 90 88 87 86 85 85 83 82 80 79 77 75 72 69
193 191 184 174 173 172 173 169 166 162 160 160 161 162 160 154 147 143 145 148 352 352 3 10 21 32 42 52 56 57 56 56 55 55 55 54 56 55 56 55 54 56 55 56 61 68 71 71 72 80 85 76 69 76 83 86 89 94 96 97 99 101 103 103 102 101 100 98 96 93 91 89 86 85 85 84 83 81 80 78 76 74 71 68 65
192 190 186 179 175 175 177 174 171 168 166 166 169 171 169 166 164 172 184 203 229 269 311 352 14 30 40 52 57 57 56 57 57 56 56 56 59 60 59 57 57 60 60 63 66 70 73 74 78 84 87 80 76 83 88 91 95 97 99 100 102 104 104 103 102 100 98 97 96 94 91 90 87 86 85 83 81 80 77 75 72 69 66 63 60
195 190 187 184 179 178 180 178 177 174 173 173 175 177 177 179 181 193 206 218 230 243 261 299 357 28 38 50 56 58 57 58 59 58 59 58 61 64 62 58 59 65 66 66 69 71 73 74 78 83 85 84 85 90 94 97 100 101 104 105 105 105 104 103 102 100 98 97 95 93 92 90 88 86 84 82 80 77 74 71 67 64 60 57 54
195 191 188 187 184 182 183 182 182 180 179 178 180 182 183 188 193 205 218 228 236 243 252 265 314 23 35 46 57 60 59 59 61 61 60 61 63 66 65 62 60 65 66 68 71 74 79 80 80 82 85 89 94 99 101 102 103 107 108 108 108 106 105 103 101 100 99 97 94 93 92 90 89 86 84 81 78 74 70 66 62 58 53 48 44
195 193 189 189 188 187 188 187 186 185 182 183 184 187 191 195 202 213 223 233 242 246 253 254 269 328 27 45 58 63 65 63 64 65 63 62 64 68 69 67 64 65 67 69 74 78 82 84 83 84 88 92 100 104 105 107 109 111 112 111 110 108 106 104 102 100 99 97 96 96 95 93 89 86 83 79 75 71 65 60 55 49 43 38 32
199 194 191 191 192 191 191 192 192 190 186 186 188 191 196 201 208 218 227 237 245 250 255 254 256 269 324 45 62 71 75 70 67 69 69 67 66 70 71 71 68 67 69 72 75 80 83 84 86 87 91 96 102 107 109 113 115 115 115 115 113 111 109 107 105 104 101 100 100 98 96 94 89 84 80 75 70 65 58 51 44 38 30 24 19
205 197 194 194 196 195 193 195 197 197 192 190 191 194 198 203 213 222 232 239 247 252 256 255 254 259 260 265 71 85 85 79 72 72 76 74 69 71 72 72 71 69 70 74 77 81 84 86 89 91 95 100 105 108 113 117 118 118 118 117 115 115 114 113 112 110 107 105 103 99 95 92 87 80 71 64 58 51 44 37 31 25 17 11 5
210 201 199 198 200 199 195 197 201 203 199 196 195 196 199 205 215 224 235 242 248 254 256 256 255 255 252 242 232 144 98 91 83 77 80 78 73 74 76 74 74 73 73 77 80 84 88 90 92 95 99 103 107 111 117 120 120 120 120 119 119 119 118 118 116 112 110 108 105 101 95 86 78 67 57 49 43 38 31 27 21 14 7 0 353
212 206 204 201 202 201 199 201 203 206 204 201 199 200 203 208 217 226 235 243 250 255 256 256 258 256 251 246 239 227 153 118 101 85 83 83 80 79 79 79 79 79 79 81 85 88 91 93 95 97 101 105 110 115 119 121 122 122 122 122 122 121 118 118 113 110 110 108 107 101 91 78 67 56 48 41 34 26 21 16 10 4 357 351 345
214 210 205 203 203 203 203 205 206 207 206 203 203 204 207 213 219 227 234 243 249 253 256 258 260 256 255 254 247 246 233 182 152 106 92 90 87 84 82 81 83 83 83 85 89 92 93 96 98 100 103 108 113 118 121 122 123 123 124 124 123 120 118 116 110 110 109 105 102 93 84 72 61 51 42 32 24 17 13 8 3 359 354 350 345
211 211 206 204 205 206 206 208 208 206 205 205 205 208 210 215 220 225 233 241 248 252 257 259 259 256 257 257 251 247 245 235 213 182 112 102 97 93 89 85 85 86 85 88 92 96 99 100 102 105 108 112 115 118 122 124 125 126 127 127 123 120 118 115 109 110 108 103 98 87 80 67 55 43 33 24 17 12 8 5 2 359 356 352 346
202 205 205 204 206 208 208 208 207 205 205 206 208 211 211 214 219 224 232 240 246 251 255 257 257 257 258 258 256 247 242 245 234 222 165 125 117 107 99 94 90 89 89 91 96 101 105 106 108 111 113 116 118 121 124 127 128 129 130 128 125 123 120 116 111 110 109 105 95 81 66 52 40 29 24 17 12 8 6 3 0 357 354 351 346
194 194 199 202 205 206 206 207 206 205 205 207 209 210 210 212 216 222 230 237 242 246 251 254 255 255 258 260 259 250 243 247 243 234 217 170 141 126 112 104 98 95 95 97 102 107 111 114 115 116 119 121 123 126 129 131 132 134 134 133 131 129 126 119 115 114 109 100 73 55 35 27 20 14 11 8 7 4 3 0 358 355 352 350 347
192 190 194 198 200 200 201 201 201 202 203 205 206 208 208 208 212 218 226 234 238 242 244 249 253 252 254 257 256 255 251 252 251 247 239 216 173 152 132 119 110 102 101 105 110 115 120 123 124 124 126 128 131 134 137 138 140 142 144 146 146 143 141 131 125 127 111 60 26 19 9 6 2 359 358 358 359 359 359 357 356 355 353 351 348
193 189 190 192 190 190 192 192 194 195 198 202 204 206 206 206 208 214 222 230 236 239 237 243 251 248 248 252 254 255 251 251 254 253 249 236 207 185 163 141 128 119 112 113 118 123 128 133 136 136 137 138 142 146 148 150 152 156 160 163 166 168 167 170 167 170 230 328 334 334 337 343 344 346 348 350 351 353 354 353 353 353 353 352 348
192 186 185 185 179 180 184 186 188 189 194 199 202 204 204 205 206 210 217 225 232 236 236 239 246 243 242 247 249 251 252 251 252 251 249 242 226 210 196 174 156 147 133 123 128 133 136 143 148 151 152 154 157 160 163 167 170 173 178 183 188 194 197 208 223 237 264 290 297 305 317 325 331 335 339 341 343 346 347 348 349 349 351 352 348
191 184 181 176 172 178 183 184 184 186 193 196 200 201 200 202 203 207 213 220 227 232 235 236 239 236 232 238 244 250 255 254 250 248 245 241 232 221 216 203 191 178 164 151 146 147 150 155 162 168 170 172 173 176 181 186 190 194 197 202 208 214 218 227 239 251 263 275 285 297 308 316 323 328 331 334 337 340 342 345 346 346 348 350 349
190 180 175 172 173 180 182 184 184 188 193 195 198 197 197 198 199 204 209 216 222 227 230 231 234 232 232 236 242 249 253 256 251 248 247 245 238 229 227 223 217 211 197 184 176 174 172 172 176 183 188 191 191 191 196 203 207 210 214 216 221 230 234 240 247 255 264 274 284 294 304 312 318 322 325 329 333 337 340 343 344 344 344 346 348
185 175 174 175 178 181 183 185 185 189 192 193 196 195 195 196 199 202 207 213 216 221 225 226 228 229 234 237 241 247 249 253 254 253 254 254 253 244 239 238 235 233 229 215 202 200 199 197 193 194 201 206 208 207 208 214 219 222 227 228 230 237 243 249 255 260 268 276 284 292 301 308 313 318 322 327 331 334 338 341 341 342 341 342 346
182 179 179 178 180 182 184 186 187 191 192 192 194 195 195 197 200 203 207 212 214 219 222 224 227 229 234 237 240 243 248 253 256 257 258 260 260 255 249 246 245 245 246 243 231 218 214 216 212 208 209 214 220 222 221 223 228 230 234 237 238 242 247 253 259 264 270 276 283 291 299 305 310 314 319 324 328 331 335 337 338 338 338 339 343
183 182 180 179 180 181 183 186 189 192 192 192 195 197 198 199 203 204 208 212 215 220 222 225 228 231 234 236 240 242 247 253 256 260 262 263 263 259 254 249 247 250 254 258 255 243 231 226 225 223 219 220 228 234 234 234 237 239 241 243 245 249 252 256 262 267 273 279 286 293 298 303 307 311 316 321 325 329 333 334 336 337 335 336 340
183 180 178 176 177 179 183 187 191 193 193 194 197 200 201 204 206 207 211 212 217 222 224 228 230 232 235 238 243 244 247 251 255 259 260 262 261 261 258 252 251 254 260 264 265 262 255 245 237 234 231 229 233 240 244 244 244 247 250 251 252 254 255 259 264 269 275 281 286 292 296 299 302 307 312 316 322 328 332 334 336 336 334 334 338
182 178 174 173 175 179 184 187 191 194 195 197 199 202 204 207 209 210 214 215 218 223 225 229 230 232 236 241 246 248 250 251 254 257 260 263 261 262 261 259 259 260 265 268 268 267 266 263 256 248 243 240 239 242 247 251 251 252 254 256 258 259 260 263 266 270 274 277 282 287 290 294 297 302 306 311 318 324 329 333 335 336 333 332 336
181 178 175 173 175 179 183 188 192 194 195 198 200 203 205 208 210 211 215 217 220 224 226 228 228 232 236 242 247 251 254 255 257 259 261 265 265 265 264 262 263 265 270 275 273 270 269 268 267 263 258 254 250 248 250 253 257 258 258 258 260 262 264 266 268 271 272 275 279 282 285 288 292 297 302 306 312 318 324 328 330 334 333 330 334
181 177 175 175 176 179 183 188 190 192 194 196 199 202 205 207 209 211 216 219 223 227 229 228 228 231 235 239 242 246 251 254 257 259 260 265 268 267 267 268 269 273 277 279 278 276 275 273 271 270 268 264 261 258 256 256 258 261 263 263 262 263 264 266 268 270 272 275 278 279 281 284 289 294 298 302 307 312 318 322 325 330 331 328 331
179 177 177 176 179 182 184 187 188 191 193 195 198 201 203 205 207 210 215 220 224 226 227 228 228 229 232 232 232 238 243 248 253 258 264 268 272 272 272 275 276 279 281 280 279 280 280 279 277 275 273 272 269 267 264 262 261 259 261 263 264 264 265 267 270 272 274 276 276 277 279 282 286 290 294 298 302 307 312 317 320 325 327 325 327
180 181 181 181 183 184 184 187 191 192 193 195 197 199 202 203 207 212 216 220 222 225 227 227 227 227 228 228 230 234 239 247 254 259 267 272 276 280 280 281 283 284 285 284 283 281 281 281 281 280 278 276 275 273 271 269 268 265 263 262 263 264 265 267 270 273 275 276 276 277 279 281 283 286 290 294 298 303 307 312 317 321 325 322 321
187 187 186 184 185 185 186 191 192 192 193 196 198 200 202 204 210 217 220 223 224 225 227 225 224 225 226 228 233 237 242 251 260 266 273 282 287 291 293 293 292 290 290 289 288 285 284 282 282 281 280 279 278 276 275 274 274 273 271 269 267 266 266 267 268 270 273 276 277 279 280 281 283 285 287 291 295 299 303 308 312 317 321 320 316
189 188 187 186 189 190 190 193 191 190 193 197 201 202 205 207 215 221 223 225 225 222 222 222 222 224 227 231 238 244 252 258 266 274 281 291 297 301 304 306 304 300 297 296 294 293 291 288 286 284 282 283 282 281 279 278 277 277 275 274 273 272 272 272 271 271 272 274 277 279 281 282 284 286 288 290 292 295 298 303 307 310 315 317 315
188 186 187 188 192 192 189 190 187 186 189 195 200 203 206 208 214 220 221 221 221 218 217 220 224 229 234 237 242 248 255 263 269 278 288 296 303 311 315 315 314 312 310 309 308 306 303 298 293 289 285 284 284 285 284 283 281 279 277 275 275 275 277 277 276 274 273 273 275 276 277 279 281 283 285 288 289 292 293 297 302 305 308 312 312
187 183 185 188 191 190 186 186 184 183 185 190 195 199 203 206 209 213 215 215 214 214 216 223 230 236 242 243 247 253 260 270 278 287 297 304 313 327 332 330 328 327 324 322 321 318 315 310 304 297 291 287 286 288 288 288 286 283 280 278 277 277 278 279 278 277 276 275 275 275 275 276 277 278 280 284 286 287 288 291 295 299 301 303 305
183 181 183 186 187 187 184 182 182 183 185 189 193 195 198 202 205 207 209 210 211 215 220 226 233 238 244 247 251 262 271 281 292 299 306 314 322 334 343 343 339 336 331 328 326 324 322 320 316 309 302 297 293 290 290 291 291 289 286 283 281 279 279 278 277 277 277 279 280 279 278 277 276 274 274 276 279 281 283 284 287 291 294 296 299
181 179 182 186 187 188 184 181 182 182 186 188 190 193 195 198 201 203 206 210 214 220 225 229 235 241 245 250 255 266 280 292 302 307 311 317 321 329 337 339 337 333 330 329 328 327 326 324 321 317 312 307 302 298 295 294 293 291 289 287 285 283 281 279 278 277 277 279 281 283 283 282 279 277 274 272 271 272 274 277 281 285 287 290 294
179 179 182 186 186 186 184 182 183 182 185 186 185 191 193 194 198 202 206 212 220 226 233 237 241 247 252 260 267 275 289 299 302 307 311 313 316 325 330 331 333 332 330 329 329 328 327 324 320 315 312 308 307 303 299 298 297 294 292 290 288 288 286 283 280 281 281 281 282 284 284 284 284 283 281 277 273 271 269 270 275 279 281 284 288
179 182 180 181 181 184 184 183 183 181 182 184 186 190 190 191 198 203 208 216 227 235 241 241 238 241 254 274 287 295 301 301 303 308 310 311 315 322 326 328 330 330 329 328 327 326 325 322 317 311 306 304 303 302 300 299 299 299 298 296 294 291 289 286 284 284 284 284 284 285 285 285 286 287 286 283 279 274 269 267 269 272 275 277 281
182 182 174 176 180 182 184 182 181 182 183 185 187 188 188 194 202 207 214 223 232 235 233 229 225 229 241 266 285 301 305 304 307 311 313 314 317 319 321 323 324 324 325 325 324 325 325 323 318 312 306 302 299 297 297 298 299 299 300 300 299 296 293 290 289 288 288 288 287 286 286 286 287 287 288 287 283 277 271 266 264 265 267 270 274
185 178 171 176 181 179 179 179 182 184 186 186 187 188 190 199 208 213 219 227 231 226 222 225 234 247 260 274 290 304 307 307 310 313 315 317 318 318 318 319 320 321 321 322 323 325 325 323 320 316 312 308 303 298 296 296 297 299 300 300 300 300 299 296 295 294 292 292 291 290 289 288 288 288 288 286 284 281 274 266 262 262 263 266 269
185 177 175 178 178 175 175 179 183 185 186 186 188 191 197 206 213 217 218 221 224 223 226 238 253 267 281 290 299 302 300 304 310 312 315 318 319 317 317 317 317 318 318 319 321 323 324 324 322 319 318 314 311 307 303 300 299 300 301 300 299 299 299 300 300 298 297 295 294 294 293 293 292 291 290 287 286 287 278 265 259 257 260 267 268
186 182 180 179 173 172 176 180 183 186 188 190 194 196 201 210 213 209 208 210 217 223 230 245 261 274 285 289 289 288 292 300 307 312 315 318 318 314 313 313 314 315 316 317 319 321 323 323 323 320 318 316 315 313 311 307 304 302 302 302 303 301 300 299 296 294 297 299 298 297 295 294 293 292 291 291 291 290 280 263 257 256 257 265 268
189 186 183 180 175 175 179 181 184 188 190 194 199 199 200 205 205 201 204 213 224 238 246 254 263 272 278 278 278 279 284 292 300 307 311 312 311 309 308 309 311 312 313 315 317 320 322 322 322 320 319 318 316 315 314 311 308 305 305 306 306 306 306 303 299 300 303 302 300 298 296 294 293 291 291 292 291 291 284 265 261 263 261 263 266
190 189 187 184 181 181 182 183 187 190 192 196 199 197 197 201 206 208 213 224 233 244 254 259 263 267 270 272 275 278 281 286 293 299 301 303 303 304 305 306 309 312 312 314 316 320 322 322 321 321 321 320 316 315 315 314 312 308 305 306 306 306 306 306 308 312 311 305 302 300 298 296 294 291 290 290 287 288 287 274 267 268 265 264 264
191 190 188 187 184 184 185 186 188 189 190 193 193 194 196 202 212 217 223 233 242 249 257 265 270 270 271 273 275 277 281 285 290 294 298 300 303 304 306 308 311 312 312 313 317 319 320 320 320 321 322 322 320 319 318 317 315 311 307 306 305 305 302 302 306 308 307 305 304 301 298 296 294 292 289 287 285 282 283 281 274 270 266 264 263
193 189 186 186 185 185 187 187 186 185 185 187 191 195 199 207 218 225 231 241 250 257 264 271 273 273 275 275 275 275 277 284 289 295 298 300 302 303 303 305 306 307 307 310 315 316 314 314 316 319 321 323 324 324 322 322 322 318 315 311 306 306 305 304 304 304 304 303 303 302 298 294 291 290 290 287 284 281 280 279 277 273 267 262 259
194 189 185 185 185 186 186 185 185 184 185 189 193 198 204 215 226 235 243 249 257 266 272 274 273 273 274 272 273 276 281 287 291 293 295 296 297 298 298 299 301 302 303 305 309 310 310 312 315 317 320 323 325 326 326 328 329 327 324 319 312 310 308 307 307 307 305 303 303 302 300 296 291 288 289 289 286 283 281 279 278 275 270 263 257
192 187 184 184 184 185 185 186 189 189 190 192 196 202 210 219 230 239 247 255 262 269 271 269 267 267 268 272 278 285 288 290 291 292 294 296 298 300 301 301 303 303 303 303 304 307 310 313 315 317 320 323 325 326 327 329 331 330 327 324 321 317 311 310 310 308 308 308 307 304 300 297 293 288 287 287 287 286 284 281 279 276 272 264 256
190 186 183 184 183 185 187 191 193 193 195 199 203 211 216 222 229 238 246 253 257 260 261 261 262 265 271 280 286 289 290 290 293 296 298 300 303 306 308 308 308 308 306 304 304 305 308 311 313 315 319 322 323 323 324 326 328 329 327 326 325 323 318 316 313 309 311 313 312 309 303 298 296 292 290 291 291 290 287 285 282 279 274 268 259
190 187 184 184 185 188 191 194 196 198 202 207 213 218 223 226 231 239 247 252 254 258 262 264 269 275 281 285 287 289 293 297 300 303 304 307 308 309 310 311 311 310 308 306 305 304 304 305 306 309 312 316 317 319 320 322 323 324 324 324 325 323 320 318 315 313 315 315 315 314 310 306 303 297 294 295 295 292 290 289 287 283 277 272 265
193 191 188 189 191 193 196 197 200 204 209 214 220 225 229 232 237 243 249 252 255 258 263 267 272 277 281 284 289 294 300 303 306 307 308 308 307 307 309 311 312 311 309 307 304 303 302 302 301 302 304 307 310 312 313 315 316 317 318 319 320 319 317 318 317 316 319 318 315 317 317 315 310 302 297 295 294 293 292 291 290 289 283 276 272
Height
3179 3180 3180 3181 3182 3183 3183 3184 3184 3184 3184 3185 3186 3186 3187 3187 3187 3187 3188 3188 3188 3188 3187 3187 3187 3186 3185 3185 3184 3183 3183 3182 3181 3181 3180 3179 3179 3178 3178 3178 3178 3178 3177 3177 3176 3176 3176 3176 3175 3175 3175 3175 3175 3174 3174 3174 3173 3173 3173 3173 3173 3173 3173 3174 3174 3174 3174 3174 3174 3175 3175 3175 3175 3175 3175 3174 3174 3174 3174 3174 3174 3174 3174 3174 3174
3179 3179 3180 3181 3182 3183 3183 3183 3184 3184 3184 3185 3186 3186 3187 3187 3187 3188 3188 3188 3188 3188 3188 3188 3187 3187 3186 3185 3185 3184 3183 3183 3182 3181 3181 3180 3180 3179 3179 3179 3178 3178 3178 3177 3177 3177 3177 3176 3176 3176 3176 3176 3175 3175 3175 3174 3174 3174 3174 3174 3174 3174 3175 3175 3175 3175 3175 3175 3176 3176 3176 3177 3177 3176 3176 3176 3176 3176 3176 3176 3176 3176 3176 3175 3175
3179 3179 3180 3181 3182 3182 3183 3183 3184 3184 3184 3185 3186 3186 3187 3187 3187 3188 3188 3188 3188 3188 3188 3188 3188 3187 3186 3186 3185 3185 3184 3183 3183 3182 3182 3181 3180 3180 3180 3180 3180 3179 3179 3178 3178 3177 3177 3177 3176 3176 3176 3176 3176 3176 3175 3175 3175 3175 3175 3175 3175 3175 3176 3176 3176 3177 3177 3177 3177 3178 3178 3178 3178 3178 3178 3178 3178 3178 3177 3177 3177 3177 3177 3176 3176
3178 3179 3180 3181 3181 3182 3183 3183 3184 3184 3184 3185 3186 3186 3187 3187 3188 3188 3188 3188 3188 3188 3188 3188 3188 3187 3187 3186 3186 3185 3185 3184 3184 3183 3182 3182 3181 3181 3181 3181 3181 3180 3180 3179 3178 3178 3178 3177 3177 3177 3177 3177 3177 3176 3176 3176 3176 3176 3176 3176 3177 3177 3177 3177 3178 3178 3178 3178 3179 3179 3179 3180 3180 3180 3179 3179 3179 3179 3179 3179 3179 3178 3178 3177 3177
3178 3179 3180 3181 3181 3182 3182 3183 3184 3184 3184 3185 3186 3186 3187 3188 3188 3188 3188 3188 3188 3189 3189 3188 3188 3188 3187 3187 3186 3186 3185 3185 3184 3184 3183 3183 3182 3182 3182 3182 3182 3181 3180 3180 3179 3179 3178 3178 3178 3178 3178 3178 3178 3177 3177 3177 3177 3178 3178 3178 3178 3178 3179 3179 3179 3180 3180 3180 3180 3181 3181 3181 3181 3181 3181 3180 3180 3180 3180 3180 3180 3179 3179 3178 3178
3177 3179 3180 3180 3181 3182 3182 3183 3184 3184 3184 3185 3186 3186 3187 3188 3188 3188 3188 3188 3189 3189 3189 3189 3189 3189 3188 3188 3187 3187 3186 3186 3185 3185 3184 3184 3183 3183 3183 3183 3182 3182 3181 3181 3180 3179 3179 3179 3179 3179 3179 3179 3178 3178 3178 3178 3179 3179 3179 3179 3179 3180 3180 3181 3181 3181 3181 3182 3182 3182 3183 3183 3183 3182 3182 3182 3181 3181 3181 3181 3181 3180 3180 3179 3179
3177 3178 3179 3180 3181 3182 3182 3183 3184 3184 3184 3185 3186 3187 3187 3188 3188 3188 3188 3188 3189 3189 3189 3189 3189 3189 3189 3188 3188 3187 3187 3187 3186 3185 3185 3185 3184 3184 3184 3183 3183 3183 3182 3181 3181 3180 3180 3179 3179 3179 3180 3180 3179 3179 3179 3179 3180 3180 3180 3180 3181 3181 3182 3182 3182 3183 3183 3183 3183 3183 3184 3184 3184 3183 3183 3183 3182 3182 3182 3182 3181 3181 3181 3180 3179
3176 3177 3178 3179 3180 3181 3182 3183 3183 3184 3184 3185 3186 3187 3187 3188 3188 3188 3189 3189 3189 3189 3189 3189 3189 3189 3189 3189 3188 3188 3187 3187 3187 3186 3186 3185 3185 3184 3184 3184 3184 3184 3183 3182 3182 3181 3180 3180 3180 3180 3181 3180 3180 3180 3180 3180 3181 3181 3182 3182 3182 3182 3183 3183 3184 3184 3184 3184 3185 3185 3185 3185 3185 3184 3184 3184 3183 3183 3183 3182 3182 3182 3181 3180 3180
3176 3177 3178 3179 3180 3181 3182 3182 3183 3184 3184 3185 3186 3186 3187 3188 3188 3189 3189 3189 3189 3189 3189 3189 3189 3189 3189 3189 3188 3188 3188 3187 3187 3187 3186 3186 3185 3185 3185 3185 3184 3184 3184 3183 3183 3182 3181 3181 3181 3181 3181 3182 3182 3181 3181 3181 3182 3182 3183 3183 3183 3184 3184 3184 3185 3185 3185 3185 3186 3186 3185 3185 3185 3185 3185 3184 3184 3184 3183 3183 3182 3182 3181 3181 3180
3175 3176 3177 3178 3179 3180 3181 3182 3183 3183 3184 3185 3185 3186 3187 3188 3188 3188 3189 3189 3189 3189 3190 3189 3189 3189 3189 3189 3189 3188 3188 3188 3187 3187 3187 3186 3186 3186 3185 3185 3185 3185 3185 3184 3184 3183 3182 3182 3182 3182 3182 3183 3183 3183 3183 3183 3183 3184 3184 3184 3185 3185 3185 3185 3185 3185 3186 3186 3187 3187 3187 3186 3186 3186 3186 3185 3185 3184 3184 3183 3183 3182 3181 3181 3180
3175 3175 3176 3177 3178 3179 3180 3181 3182 3183 3183 3184 3185 3186 3187 3188 3188 3188 3189 3189 3190 3190 3190 3189 3189 3189 3189 3189 3188 3188 3188 3188 3188 3187 3187 3187 3187 3186 3186 3186 3185 3185 3185 3185 3185 3184 3184 3183 3183 3183 3183 3184 3184 3184 3184 3185 3185 3185 3186 3186 3186 3186 3186 3186 3186 3186 3187 3187 3187 3188 3187 3187 3187 3186 3186 3186 3185 3185 3184 3183 3183 3182 3181 3181 3180
3174 3174 3175 3176 3177 3179 3180 3181 3181 3182 3183 3184 3185 3186 3187 3187 3188 3188 3189 3189 3189 3190 3190 3189 3189 3189 3189 3189 3188 3188 3188 3188 3188 3188 3188 3187 3187 3187 3187 3186 3186 3186 3186 3186 3186 3185 3185 3184 3184 3184 3184 3185 3185 3186 3186 3186 3186 3187 3187 3187 3187 3187 3187 3187 3187 3187 3188 3188 3188 3188 3188 3188 3187 3187 3187 3186 3186 3185 3184 3184 3183 3182 3181 3181 3180
3174 3174 3175 3176 3177 3178 3179 3180 3181 3182 3183 3184 3185 3185 3186 3187 3187 3188 3188 3189 3189 3189 3189 3189 3189 3189 3189 3189 3188 3188 3188 3188 3188 3188 3188 3188 3188 3188 3187 3187 3187 3187 3187 3186 3186 3186 3186 3186 3185 3185 3186 3186 3187 3187 3187 3188 3188 3188 3188 3188 3188 3188 3188 3188 3188 3188 3189 3189 3189 3189 3188 3188 3188 3187 3187 3186 3186 3185 3185 3184 3183 3182 3181 3180 3179
3173 3174 3175 3176 3177 3178 3178 3179 3180 3181 3182 3183 3184 3185 3186 3186 3187 3187 3188 3188 3189 3189 3189 3189 3189 3189 3189 3188 3188 3188 3188 3188 3189 3189 3189 3189 3188 3188 3188 3188 3187 3187 3187 3187 3187 3187 3187 3187 3186 3186 3187 3188 3188 3188 3189 3189 3189 3189 3190 3190 3190 3189 3189 3189 3189 3189 3190 3190 3190 3189 3189 3188 3188 3187 3186 3186 3186 3185 3184 3183 3182 3181 3180 3180 3179
3173 3173 3174 3176 3177 3177 3178 3179 3180 3181 3182 3183 3184 3184 3185 3186 3186 3187 3187 3188 3188 3189 3189 3189 3189 3189 3189 3188 3188 3189 3188 3188 3189 3189 3189 3189 3189 3188 3188 3188 3188 3188 3188 3188 3188 3188 3188 3188 3187 3187 3188 3188 3189 3189 3190 3190 3190 3190 3190 3191 3191 3191 3190 3190 3190 3190 3190 3190 3190 3190 3189 3189 3188 3187 3186 3186 3185 3185 3184 3183 3182 3181 3180 3179 3178
3172 3173 3174 3175 3176 3177 3178 3179 3180 3181 3182 3183 3183 3184 3184 3185 3186 3186 3187 3187 3188 3188 3189 3189 3188 3189 3189 3188 3188 3189 3188 3188 3189 3189 3189 3189 3189 3189 3189 3188 3188 3188 3188 3188 3188 3188 3188 3188 3188 3188 3188 3189 3189 3190 3190 3191 3191 3191 3191 3191 3191 3191 3191 3191 3191 3191 3191 3191 3190 3190 3189 3189 3188 3187 3187 3186 3185 3184 3183 3182 3182 3180 3179 3178 3177
3172 3172 3173 3174 3175 3177 3178 3179 3180 3181 3182 3182 3183 3183 3184 3184 3185 3186 3186 3187 3188 3188 3188 3188 3188 3188 3188 3188 3188 3188 3188 3188 3189 3189 3189 3189 3189 3189 3189 3189 3189 3189 3189 3189 3189 3189 3189 3189 3189 3189 3189 3189 3190 3190 3191 3191 3191 3191 3191 3192 3192 3192 3192 3191 3191 3191 3191 3191 3190 3190 3189 3189 3188 3187 3187 3186 3185 3184 3183 3182 3181 3180 3179 3177 3176
3171 3172 3173 3174 3175 3176 3177 3179 3179 3180 3181 3181 3182 3182 3183 3184 3184 3185 3186 3187 3187 3188 3188 3188 3188 3188 3188 3188 3188 3188 3188 3188 3188 3188 3189 3189 3189 3189 3189 3189 3189 3189 3189 3189 3189 3189 3189 3189 3189 3189 3190 3190 3190 3190 3191 3191 3191 3191 3192 3192 3192 3192 3192 3192 3192 3191 3191 3191 3190 3190 3189 3189 3188 3187 3187 3186 3185 3184 3183 3182 3181 3180 3178 3177 3176
3171 3172 3172 3173 3175 3176 3177 3178 3178 3179 3180 3180 3181 3181 3182 3183 3184 3185 3185 3186 3187 3187 3188 3188 3188 3188 3188 3188 3188 3188 3188 3188 3188 3188 3188 3189 3189 3189 3189 3189 3189 3189 3189 3189 3189 3189 3189 3189 3190 3190 3190 3190 3190 3191 3191 3191 3191 3191 3191 3192 3192 3192 3192 3192 3191 3191 3191 3191 3190 3190 3189 3188 3188 3187 3186 3185 3184 3183 3182 3181 3180 3179 3178 3176 3175
3170 3171 3172 3173 3175 3175 3176 3177 3177 3178 3179 3179 3180 3181 3182 3183 3183 3184 3185 3186 3186 3187 3188 3188 3188 3188 3188 3188 3188 3188 3188 3188 3188 3188 3188 3188 3188 3189 3189 3189 3189 3189 3189 3189 3190 3190 3190 3190 3190 3190 3190 3190 3190 3191 3191 3191 3191 3191 3191 3191 3191 3191 3191 3191 3191 3191 3191 3190 3190 3189 3188 3188 3187 3187 3186 3185 3184 3183 3182 3181 3179 3178 3177 3176 3174
3170 3171 3172 3173 3174 3174 3175 3176 3176 3177 3177 3178 3179 3180 3181 3182 3183 3184 3184 3185 3186 3187 3187 3187 3187 3187 3187 3187 3187 3187 3187 3187 3187 3187 3187 3188 3188 3188 3188 3189 3189 3189 3189 3189 3190 3190 3190 3190 3190 3190 3190 3190 3190 3190 3191 3191 3191 3191 3191 3191 3191 3191 3191 3190 3190 3190 3190 3189 3189 3188 3188 3187 3187 3186 3185 3184 3183 3182 3181 3180 3179 3178 3176 3175 3173
3169 3170 3171 3172 3173 3174 3174 3175 3175 3176 3177 3178 3179 3180 3181 3181 3182 3183 3184 3184 3185 3186 3186 3187 3187 3187 3187 3187 3187 3187 3187 3187 3187 3187 3187 3187 3188 3188 3188 3188 3189 3189 3189 3189 3189 3190 3190 3190 3190 3190 3190 3190 3190 3190 3190 3190 3190 3190 3190 3190 3190 3190 3190 3190 3190 3189 3189 3188 3188 3187 3187 3186 3185 3185 3184 3183 3182 3181 3180 3179 3178 3177 3176 3174 3173
3169 3170 3170 3171 3172 3173 3173 3174 3175 3175 3176 3177 3178 3179 3180 3180 3181 3182 3183 3184 3184 3185 3185 3186 3186 3186 3187 3187 3187 3187 3186 3186 3187 3187 3187 3187 3187 3187 3188 3188 3188 3188 3188 3189 3189 3189 3189 3190 3190 3190 3190 3190 3189 3189 3189 3189 3189 3189 3190 3190 3189 3189 3189 3189 3189 3189 3188 3188 3187 3186 3186 3185 3184 3184 3183 3182 3181 3180 3179 3178 3177 3176 3175 3174 3172
3168 3169 3170 3171 3171 3172 3173 3173 3174 3175 3176 3177 3177 3178 3179 3179 3180 3181 3182 3183 3184 3184 3185 3185 3186 3186 3186 3186 3186 3186 3186 3186 3186 3186 3186 3186 3186 3187 3187 3187 3188 3188 3188 3188 3188 3188 3189 3189 3189 3189 3190 3189 3189 3188 3188 3189 3188 3188 3189 3188 3188 3188 3188 3188 3188 3188 3187 3187 3186 3185 3185 3184 3183 3183 3182 3181 3180 3179 3178 3177 3176 3175 3174 3173 3171
3168 3169 3170 3170 3171 3172 3172 3173 3174 3174 3175 3176 3177 3177 3178 3179 3180 3181 3182 3182 3183 3183 3184 3185 3185 3185 3186 3186 3186 3186 3186 3186 3186 3186 3186 3186 3186 3186 3186 3187 3187 3187 3187 3187 3188 3188 3188 3188 3188 3189 3189 3189 3189 3188 3188 3188 3188 3188 3187 3187 3187 3187 3187 3187 3187 3186 3186 3185 3185 3184 3184 3183 3182 3181 3181 3180 3179 3178 3177 3176 3175 3174 3173 3172 3171
3168 3169 3169 3170 3171 3171 3172 3173 3173 3174 3175 3176 3176 3177 3178 3178 3179 3180 3181 3182 3183 3183 3184 3184 3185 3185 3185 3186 3186 3186 3186 3186 3186 3186 3186 3186 3186 3186 3186 3186 3186 3186 3186 3187 3187 3187 3187 3187 3187 3188 3188 3188 3188 3188 3187 3187 3187 3187 3187 3186 3186 3186 3185 3185 3185 3185 3184 3184 3183 3183 3182 3182 3181 3180 3180 3179 3178 3177 3176 3175 3174 3173 3172 3171 3170
3167 3168 3169 3169 3170 3171 3171 3172 3173 3174 3175 3176 3176 3177 3177 3178 3179 3180 3181 3181 3182 3183 3183 3184 3184 3185 3185 3185 3186 3186 3186 3186 3186 3186 3186 3186 3186 3185 3185 3185 3185 3185 3185 3185 3185 3185 3186 3186 3186 3187 3187 3187 3187 3187 3187 3186 3185 3186 3186 3185 3185 3185 3184 3184 3184 3183 3182 3182 3182 3181 3181 3180 3179 3179 3178 3177 3177 3176 3175 3174 3173 3172 3171 3170 3169
3167 3168 3168 3169 3170 3170 3171 3172 3173 3174 3175 3175 3176 3177 3177 3178 3179 3179 3180 3181 3182 3182 3183 3183 3184 3185 3185 3185 3185 3185 3185 3185 3185 3185 3185 3185 3185 3185 3185 3185 3185 3185 3185 3185 3184 3184 3184 3184 3184 3185 3185 3185 3186 3186 3185 3185 3184 3184 3184 3184 3184 3183 3183 3182 3182 3181 3181 3180 3180 3179 3179 3178 3178 3177 3177 3176 3176 3175 3174 3173 3172 3171 3170 3169 3168
3167 3167 3168 3169 3170 3170 3171 3172 3173 3174 3174 3175 3176 3177 3177 3178 3179 3179 3180 3181 3181 3182 3182 3183 3184 3184 3184 3185 3185 3185 3185 3185 3184 3184 3184 3185 3185 3184 3184 3184 3184 3184 3184 3184 3184 3183 3183 3183 3183 3183 3183 3183 3184 3184 3184 3183 3183 3183 3182 3182 3182 3181 3181 3181 3181 3180 3179 3179 3178 3178 3177 3177 3176 3176 3175 3175 3174 3174 3173 3172 3171 3170 3169 3168 3167
3167 3167 3168 3169 3170 3170 3171 3172 3173 3174 3174 3175 3176 3176 3177 3178 3179 3179 3180 3180 3181 3181 3182 3183 3183 3184 3184 3184 3184 3184 3184 3184 3184 3184 3184 3184 3184 3184 3184 3184 3184 3183 3183 3183 3183 3183 3182 3182 3181 3181 3181 3181 3181 3182 3182 3181 3181 3181 3180 3180 3180 3179 3179 3179 3179 3178 3178 3177 3177 3176 3176 3175 3175 3174 3174 3173 3173 3172 3172 3171 3170 3169 3168 3167 3167
3166 3167 3168 3168 3169 3170 3171 3172 3173 3173 3174 3175 3175 3176 3177 3178 3179 3179 3180 3180 3180 3181 3182 3182 3183 3183 3184 3184 3184 3184 3184 3184 3184 3184 3184 3184 3184 3184 3183 3183 3183 3183 3182 3182 3182 3182 3181 3181 3180 3180 3179 3179 3179 3180 3180 3179 3179 3178 3178 3178 3178 3177 3177 3177 3177 3176 3176 3175 3175 3174 3174 3174 3173 3173 3172 3172 3171 3171 3170 3170 3169 3168 3167 3166 3166
3166 3166 3167 3168 3169 3170 3171 3172 3172 3173 3174 3175 3176 3176 3177 3178 3179 3179 3179 3180 3180 3181 3181 3182 3183 3183 3183 3183 3184 3184 3184 3184 3184 3184 3184 3184 3183 3183 3183 3182 3182 3181 3181 3181 3180 3180 3180 3179 3179 3179 3178 3178 3178 3178 3178 3177 3177 3177 3176 3176 3176 3175 3175 3174 3174 3174 3174 3173 3173 3172 3172 3171 3171 3171 3171 3170 3169 3169 3169 3168 3167 3167 3166 3165 3164
3165 3166 3167 3167 3168 3169 3170 3171 3172 3173 3174 3175 3176 3176 3177 3178 3178 3179 3179 3180 3180 3181 3181 3182 3183 3183 3183 3183 3184 3184 3183 3183 3184 3184 3184 3184 3183 3183 3182 3182 3181 3180 3180 3180 3179 3179 3178 3178 3178 3177 3177 3176 3176 3176 3176 3175 3175 3175 3174 3174 3173 3173 3173 3173 3172 3171 3171 3171 3170 3170 3169 3169 3169 3169 3168 3168 3168 3167 3167 3166 3165 3165 3164 3164 3163
3164 3165 3166 3166 3167 3168 3169 3171 3172 3173 3174 3175 3175 3176 3177 3178 3178 3179 3179 3180 3180 3181 3181 3182 3183 3183 3183 3183 3183 3183 3183 3183 3183 3184 3184 3184 3183 3183 3182 3182 3181 3180 3179 3179 3178 3178 3177 3176 3176 3175 3175 3175 3174 3174 3174 3173 3173 3172 3172 3171 3171 3171 3171 3170 3170 3169 3168 3168 3168 3168 3167 3167 3166 3166 3166 3166 3165 3165 3164 3164 3163 3163 3163 3162 3162
3163 3164 3165 3166 3167 3168 3169 3170 3171 3172 3173 3174 3175 3176 3177 3178 3178 3179 3180 3180 3181 3181 3181 3182 3182 3183 3183 3183 3183 3183 3183 3183 3183 3183 3183 3183 3183 3183 3182 3182 3181 3180 3179 3178 3177 3177 3176 3175 3175 3174 3173 3173 3173 3172 3172 3171 3171 3170 3169 3169 3169 3168 3168 3167 3167 3166 3166 3165 3166 3165 3165 3165 3164 3163 3163 3163 3162 3163 3162 3161 3161 3161 3161 3160 3160
3161 3162 3164 3165 3166 3167 3168 3169 3170 3172 3173 3174 3175 3176 3177 3177 3178 3179 3180 3180 3180 3181 3181 3182 3182 3182 3182 3183 3183 3183 3183 3183 3183 3183 3183 3183 3182 3182 3182 3181 3181 3180 3179 3178 3177 3176 3175 3174 3173 3173 3172 3171 3171 3170 3170 3170 3169 3168 3168 3167 3166 3166 3165 3164 3164 3163 3163 3163 3163 3162 3162 3162 3161 3160 3160 3160 3159 3159 3159 3159 3159 3159 3159 3158 3158
3160 3161 3162 3164 3165 3166 3167 3168 3170 3171 3172 3173 3175 3175 3176 3178 3179 3180 3180 3180 3180 3181 3181 3182 3182 3182 3182 3182 3182 3183 3182 3182 3182 3182 3182 3182 3182 3181 3181 3180 3180 3179 3178 3177 3176 3175 3174 3174 3173 3172 3171 3170 3169 3168 3168 3167 3167 3166 3166 3165 3164 3163 3163 3162 3161 3161 3160 3160 3160 3160 3159 3159 3158 3158 3157 3157 3156 3155 3155 3156 3156 3156 3156 3156 3156
3158 3159 3161 3163 3164 3165 3166 3167 3169 3171 3172 3173 3174 3175 3177 3178 3179 3179 3180 3180 3180 3181 3181 3181 3181 3182 3182 3182 3182 3182 3182 3182 3181 3181 3181 3181 3181 3181 3180 3179 3178 3178 3177 3176 3175 3175 3174 3173 3171 3170 3170 3169 3168 3167 3166 3165 3165 3164 3163 3162 3162 3161 3160 3159 3159 3158 3158 3158 3158 3157 3156 3156 3156 3155 3155 3154 3153 3152 3151 3153 3153 3153 3154 3154 3154
3156 3157 3160 3162 3162 3164 3165 3167 3169 3170 3171 3172 3174 3175 3177 3178 3178 3179 3179 3180 3180 3180 3180 3180 3181 3181 3181 3181 3181 3181 3181 3181 3181 3180 3180 3180 3180 3179 3179 3178 3177 3176 3175 3175 3174 3173 3172 3171 3170 3169 3168 3167 3167 3166 3164 3163 3162 3162 3161 3160 3159 3158 3158 3157 3156 3156 3156 3155 3155 3154 3154 3154 3153 3153 3152 3151 3151 3150 3148 3149 3150 3150 3151 3151 3151
3155 3157 3158 3160 3161 3163 3165 3167 3168 3169 3171 3172 3174 3175 3176 3177 3177 3178 3179 3179 3180 3180 3179 3180 3180 3180 3180 3181 3181 3181 3181 3180 3180 3180 3179 3179 3178 3178 3177 3177 3176 3175 3174 3173 3172 3171 3170 3169 3168 3167 3166 3165 3165 3164 3163 3161 3160 3160 3159 3158 3157 3156 3155 3154 3154 3153 3153 3152 3152 3152 3151 3151 3150 3150 3149 3148 3148 3147 3146 3146 3146 3147 3147 3148 3148
3155 3155 3157 3159 3160 3163 3165 3166 3168 3169 3170 3172 3173 3174 3175 3176 3177 3178 3179 3179 3179 3179 3179 3179 3179 3179 3180 3180 3180 3180 3180 3180 3179 3179 3179 3178 3177 3176 3175 3175 3174 3173 3172 3171 3170 3169 3168 3167 3166 3165 3164 3163 3163 3162 3161 3160 3158 3157 3157 3156 3155 3154 3153 3152 3151 3150 3150 3149 3149 3149 3148 3148 3147 3147 3146 3145 3145 3144 3143 3142 3142 3143 3144 3144 3145
3153 3154 3156 3158 3160 3163 3164 3166 3167 3168 3170 3171 3172 3174 3174 3175 3176 3177 3178 3178 3178 3178 3178 3178 3178 3179 3179 3180 3180 3180 3180 3179 3178 3178 3177 3177 3176 3175 3174 3173 3172 3172 3171 3170 3169 3168 3167 3166 3165 3164 3163 3162 3161 3160 3159 3159 3157 3156 3155 3154 3153 3152 3151 3150 3149 3148 3147 3147 3146 3146 3146 3145 3145 3144 3143 3142 3142 3141 3140 3139 3139 3139 3140 3141 3142
3152 3154 3156 3158 3160 3162 3164 3165 3167 3168 3170 3171 3172 3173 3174 3175 3176 3177 3177 3177 3178 3178 3177 3177 3178 3179 3179 3179 3179 3179 3179 3178 3177 3177 3176 3176 3175 3173 3172 3171 3171 3170 3169 3168 3167 3166 3166 3165 3164 3163 3162 3161 3160 3158 3158 3157 3156 3155 3154 3152 3151 3150 3149 3148 3147 3146 3145 3145 3144 3144 3143 3142 3141 3140 3140 3140 3139 3138 3137 3136 3136 3136 3137 3138 3138
3153 3155 3157 3158 3160 3162 3164 3166 3167 3169 3170 3171 3172 3173 3174 3175 3176 3176 3176 3176 3177 3177 3177 3177 3178 3178 3178 3178 3178 3178 3178 3177 3176 3176 3175 3174 3173 3172 3171 3170 3169 3168 3167 3166 3166 3165 3164 3163 3162 3161 3161 3160 3159 3157 3156 3155 3155 3154 3153 3152 3150 3149 3148 3147 3145 3144 3143 3142 3142 3141 3140 3140 3138 3137 3137 3137 3136 3135 3134 3134 3134 3134 3134 3135 3136
3154 3155 3157 3159 3161 3163 3164 3166 3168 3169 3170 3171 3172 3173 3174 3174 3175 3175 3175 3175 3176 3176 3176 3177 3177 3177 3177 3178 3177 3177 3177 3176 3175 3174 3173 3173 3172 3171 3169 3168 3167 3166 3165 3165 3164 3164 3163 3162 3161 3160 3160 3159 3158 3156 3155 3154 3153 3152 3151 3151 3150 3148 3147 3146 3144 3143 3142 3141 3139 3139 3138 3137 3136 3135 3134 3134 3133 3133 3132 3132 3132 3131 3132 3132 3133
3154 3156 3158 3160 3161 3163 3165 3166 3168 3169 3170 3171 3172 3173 3173 3174 3174 3174 3174 3174 3175 3175 3176 3176 3176 3176 3176 3176 3176 3176 3175 3175 3174 3173 3172 3171 3170 3169 3168 3167 3166 3165 3164 3163 3163 3163 3162 3161 3160 3160 3159 3158 3156 3155 3154 3152 3151 3150 3149 3149 3148 3147 3146 3144 3143 3142 3141 3139 3138 3136 3135 3134 3133 3132 3131 3131 3131 3130 3130 3130 3129 3129 3128 3128 3129
3154 3156 3158 3160 3162 3163 3165 3166 3167 3169 3170 3171 3172 3172 3173 3173 3173 3173 3173 3173 3174 3174 3175 3175 3175 3175 3175 3175 3174 3174 3174 3173 3172 3171 3170 3169 3169 3168 3167 3166 3165 3163 3162 3162 3162 3161 3161 3160 3160 3159 3158 3157 3155 3154 3152 3151 3150 3149 3148 3147 3146 3145 3144 3142 3141 3140 3139 3138 3136 3134 3132 3131 3130 3130 3129 3128 3127 3127 3127 3127 3126 3126 3125 3125 3126
3155 3156 3158 3160 3162 3163 3165 3166 3167 3168 3169 3170 3171 3172 3172 3172 3172 3172 3172 3172 3173 3173 3173 3173 3173 3173 3173 3173 3172 3172 3172 3171 3170 3169 3168 3167 3166 3166 3165 3164 3163 3162 3161 3161 3160 3160 3159 3159 3158 3157 3156 3155 3154 3153 3151 3150 3149 3148 3147 3145 3145 3144 3143 3141 3140 3138 3136 3135 3134 3133 3131 3129 3128 3127 3126 3125 3124 3124 3124 3124 3123 3123 3123 3123 3123
3155 3157 3158 3160 3162 3163 3164 3165 3166 3167 3168 3169 3170 3170 3171 3171 3171 3171 3171 3171 3171 3171 3172 3172 3172 3171 3171 3171 3171 3170 3169 3168 3168 3167 3166 3165 3164 3164 3163 3162 3161 3161 3160 3159 3159 3158 3158 3157 3156 3155 3154 3153 3152 3151 3150 3149 3147 3146 3145 3144 3143 3142 3141 3139 3138 3137 3134 3132 3131 3130 3128 3127 3126 3124 3122 3121 3121 3121 3121 3120 3120 3120 3120 3120 3120
3156 3157 3158 3160 3161 3162 3163 3164 3165 3166 3167 3168 3169 3169 3169 3169 3170 3170 3170 3170 3170 3170 3170 3170 3170 3170 3170 3169 3169 3168 3167 3166 3165 3164 3164 3163 3162 3162 3161 3161 3160 3159 3158 3157 3157 3156 3156 3155 3154 3153 3152 3151 3150 3149 3148 3147 3146 3144 3143 3142 3141 3140 3138 3137 3136 3134 3132 3131 3129 3127 3126 3125 3124 3122 3119 3119 3119 3118 3118 3117 3117 3117 3117 3116 3117
3156 3157 3158 3159 3160 3161 3162 3163 3164 3165 3166 3167 3167 3168 3168 3168 3169 3169 3169 3169 3169 3169 3169 3168 3168 3168 3168 3167 3167 3166 3165 3164 3163 3162 3162 3161 3161 3160 3159 3159 3158 3158 3157 3156 3155 3155 3154 3153 3153 3152 3151 3150 3149 3148 3146 3145 3144 3142 3141 3140 3139 3137 3136 3135 3134 3132 3130 3129 3126 3125 3124 3123 3121 3120 3118 3117 3117 3117 3116 3115 3114 3114 3114 3114 3113